�������l�o���
Date,Time,MP-1(��Sv/h),MP-2(��Sv/h),MP-3(��Sv/h),MP-4(��Sv/h),MP-5(��Sv/h),MP-6(��Sv/h),MP-7(��Sv/h),MP-8(��Sv/h),����,����(m/s),���J
2019/03/23,00:00,0.775,1.146,0.786,1.459,1.055,0.440,0.782,0.739,�k�k��,4.5,��
2019/03/23,00:10,0.774,1.145,0.786,1.460,1.053,0.441,0.782,0.740,�k�k��,2.8,��
2019/03/23,00:20,0.777,1.147,0.784,1.460,1.053,0.441,0.782,0.740,�k,4.0,��
2019/03/23,00:30,0.776,1.149,0.785,1.458,1.053,0.440,0.782,0.739,�k�k��,4.5,��
2019/03/23,00:40,0.777,1.147,0.787,1.460,1.054,0.441,0.783,0.740,�k�k��,3.3,��
2019/03/23,00:50,0.777,1.149,0.786,1.460,1.054,0.441,0.782,0.740,�k�k��,3.5,��
2019/03/23,01:00,0.776,1.132,0.785,1.459,1.053,0.440,0.783,0.739,�k�k��,5.1,��
2019/03/23,01:10,0.775,1.096,0.787,1.458,1.054,0.441,0.781,0.740,�k�k��,6.4,��
2019/03/23,01:20,0.775,1.109,0.784,1.459,1.054,0.441,0.782,0.739,�k��,5.1,��
2019/03/23,01:30,0.776,1.143,0.786,1.460,1.054,0.441,0.782,0.741,�k�k��,3.8,��
2019/03/23,01:40,0.777,1.144,0.785,1.458,1.055,0.440,0.781,0.740,�k�k��,4.0,��
2019/03/23,01:50,0.777,1.145,0.785,1.458,1.053,0.442,0.782,0.739,�k��,4.3,��
2019/03/23,02:00,0.774,1.150,0.784,1.459,1.054,0.440,0.782,0.739,�k��,2.9,��
2019/03/23,02:10,0.776,1.150,0.785,1.460,1.053,0.442,0.782,0.739,�k��,1.2,��
2019/03/23,02:20,0.776,1.147,0.786,1.457,1.054,0.440,0.782,0.739,�k��,4.1,��
2019/03/23,02:30,0.777,1.147,0.785,1.460,1.054,0.439,0.782,0.738,�k��,3.3,��
2019/03/23,02:40,0.775,1.146,0.784,1.457,1.054,0.439,0.782,0.738,�k�k��,2.6,��
2019/03/23,02:50,0.777,1.146,0.786,1.458,1.054,0.440,0.782,0.741,�k�k��,2.0,��
2019/03/23,03:00,0.778,1.146,0.784,1.458,1.053,0.440,0.780,0.739,�k�k��,2.8,��
2019/03/23,03:10,0.777,1.147,0.785,1.458,1.053,0.440,0.781,0.739,�k��,3.7,��
2019/03/23,03:20,0.776,1.145,0.784,1.456,1.052,0.442,0.779,0.739,�k�k��,3.2,��
2019/03/23,03:30,0.776,1.146,0.785,1.458,1.051,0.439,0.782,0.738,�k�k��,2.6,��
2019/03/23,03:40,0.775,1.148,0.784,1.460,1.052,0.441,0.781,0.740,�k,2.6,��
2019/03/23,03:50,0.774,1.148,0.786,1.460,1.052,0.440,0.781,0.737,�k,2.8,��
2019/03/23,04:00,0.774,1.147,0.783,1.459,1.053,0.440,0.780,0.740,�k�k��,4.1,��
2019/03/23,04:10,0.775,1.145,0.785,1.458,1.052,0.441,0.782,0.738,�k�k��,4.8,��
2019/03/23,04:20,0.774,1.147,0.785,1.459,1.053,0.441,0.781,0.738,�k�k��,5.6,��
2019/03/23,04:30,0.774,1.146,0.787,1.458,1.055,0.442,0.780,0.738,�k�k��,5.2,��
2019/03/23,04:40,0.776,1.148,0.783,1.459,1.052,0.440,0.780,0.741,�k�k��,4.3,��
2019/03/23,04:50,0.777,1.147,0.784,1.457,1.053,0.441,0.780,0.740,�k�k��,4.2,��
2019/03/23,05:00,0.774,1.146,0.783,1.459,1.053,0.441,0.780,0.740,�k�k��,5.5,��
2019/03/23,05:10,0.776,1.149,0.784,1.458,1.053,0.441,0.781,0.740,�k�k��,5.6,��
2019/03/23,05:20,0.774,1.146,0.784,1.459,1.051,0.439,0.781,0.739,�k�k��,5.3,��
2019/03/23,05:30,0.775,1.147,0.784,1.458,1.052,0.441,0.781,0.740,�k�k��,5.3,��
2019/03/23,05:40,0.773,1.147,0.785,1.458,1.053,0.441,0.781,0.738,�k�k��,4.5,��
2019/03/23,05:50,0.775,1.147,0.785,1.456,1.051,0.441,0.781,0.740,�k�k��,4.8,��
2019/03/23,06:00,0.775,1.148,0.783,1.458,1.051,0.440,0.781,0.740,�k�k��,4.3,��
2019/03/23,06:10,0.774,1.147,0.785,1.459,1.053,0.440,0.779,0.740,�k,4.1,��
2019/03/23,06:20,0.775,1.146,0.783,1.456,1.054,0.441,0.782,0.739,�k,4.4,��
2019/03/23,06:30,0.773,1.148,0.784,1.456,1.052,0.440,0.780,0.739,�k,4.9,��
2019/03/23,06:40,0.776,1.146,0.784,1.457,1.054,0.439,0.782,0.740,�k,5.1,��
2019/03/23,06:50,0.775,1.146,0.787,1.457,1.053,0.441,0.782,0.740,�k,5.3,��
2019/03/23,07:00,0.774,1.147,0.784,1.458,1.052,0.441,0.782,0.736,�k�k��,4.4,��
2019/03/23,07:10,0.775,1.146,0.786,1.457,1.052,0.441,0.781,0.739,�k,3.4,��
2019/03/23,07:20,0.775,1.149,0.783,1.458,1.052,0.439,0.781,0.740,�k�k��,3.0,��
2019/03/23,07:30,0.776,1.147,0.784,1.460,1.052,0.442,0.782,0.741,�k,3.0,��
2019/03/23,07:40,0.775,1.145,0.784,1.458,1.054,0.441,0.780,0.740,�k�k��,3.5,��
2019/03/23,07:50,0.774,1.147,0.784,1.458,1.055,0.440,0.781,0.741,�k,3.4,��
2019/03/23,08:00,0.775,1.146,0.785,1.457,1.052,0.441,0.782,0.739,�k,3.5,��
2019/03/23,08:10,0.777,1.148,0.783,1.458,1.053,0.441,0.781,0.740,�k�k��,3.4,��
2019/03/23,08:20,0.777,1.147,0.784,1.460,1.053,0.439,0.784,0.740,�k�k��,3.4,��
2019/03/23,08:30,0.776,1.145,0.787,1.459,1.054,0.440,0.782,0.739,�k��,3.3,��
2019/03/23,08:40,0.774,1.146,0.783,1.460,1.055,0.440,0.781,0.739,�k�k��,3.4,��
2019/03/23,08:50,0.777,1.148,0.787,1.461,1.055,0.439,0.779,0.741,�k��,4.5,��
2019/03/23,09:00,0.776,1.148,0.787,1.461,1.055,0.441,0.783,0.741,�k�k��,4.1,��
2019/03/23,09:10,0.777,1.149,0.784,1.460,1.057,0.441,0.782,0.740,�k��,3.6,��
2019/03/23,09:20,0.777,1.148,0.785,1.458,1.056,0.441,0.781,0.739,�k��,3.9,��
2019/03/23,09:30,0.779,1.148,0.785,1.461,1.055,0.442,0.779,0.741,�k�k��,3.1,��
2019/03/23,09:40,0.777,1.149,0.787,1.461,1.055,0.442,0.779,0.740,�k��,3.3,��
2019/03/23,09:50,0.777,1.148,0.785,1.462,1.055,0.440,0.780,0.741,���k��,3.1,��
2019/03/23,10:00,0.776,1.151,0.786,1.461,1.057,0.441,0.781,0.740,�k��,3.0,��
2019/03/23,10:10,0.780,1.147,0.787,1.461,1.057,0.442,0.778,0.741,���k��,3.2,��
2019/03/23,10:20,0.778,1.149,0.787,1.459,1.057,0.442,0.781,0.741,��,2.6,��
2019/03/23,10:30,0.777,1.149,0.785,1.462,1.055,0.442,0.780,0.740,���쓌,2.6,��
2019/03/23,10:40,0.778,1.149,0.786,1.458,1.057,0.441,0.781,0.741,���쓌,2.0,��
2019/03/23,10:50,0.779,1.151,0.788,1.461,1.055,0.441,0.780,0.739,�쓌,3.0,��
2019/03/23,11:00,0.780,1.149,0.787,1.460,1.054,0.443,0.780,0.739,�쓌,4.7,��
2019/03/23,11:10,0.779,1.151,0.787,1.461,1.054,0.442,0.782,0.741,��쓌,2.5,��
2019/03/23,11:20,0.780,1.150,0.788,1.461,1.055,0.443,0.780,0.738,�쓌,3.0,��
2019/03/23,11:30,0.779,1.152,0.786,1.463,1.056,0.442,0.781,0.739,�쓌,3.2,��
2019/03/23,11:40,0.779,1.151,0.787,1.462,1.054,0.442,0.781,0.740,���쓌,2.9,��
2019/03/23,11:50,0.780,1.153,0.788,1.462,1.053,0.442,0.780,0.739,���쓌,3.3,��
2019/03/23,12:00,0.779,1.152,0.787,1.462,1.054,0.442,0.781,0.740,�쓌,4.5,��
2019/03/23,12:10,0.779,1.153,0.786,1.463,1.054,0.441,0.782,0.738,���쓌,4.1,��
2019/03/23,12:20,0.778,1.151,0.788,1.462,1.054,0.443,0.781,0.737,�쓌,4.4,��
2019/03/23,12:30,0.779,1.151,0.788,1.462,1.055,0.442,0.781,0.739,�쓌,4.1,��
2019/03/23,12:40,0.779,1.151,0.788,1.460,1.058,0.444,0.781,0.738,���쓌,4.2,��
2019/03/23,12:50,0.777,1.152,0.787,1.462,1.056,0.441,0.781,0.740,��,4.2,��
2019/03/23,13:00,0.779,1.147,0.788,1.460,1.057,0.441,0.780,0.739,���쓌,3.5,��
2019/03/23,13:10,0.780,1.151,0.787,1.460,1.056,0.442,0.780,0.741,��,4.0,��
2019/03/23,13:20,0.779,1.151,0.787,1.464,1.057,0.442,0.780,0.741,���쓌,2.3,��
2019/03/23,13:30,0.780,1.154,0.789,1.462,1.057,0.442,0.781,0.741,��쐼,1.1,��
2019/03/23,13:40,0.778,1.152,0.788,1.461,1.058,0.442,0.782,0.741,��,3.1,��
2019/03/23,13:50,0.780,1.148,0.789,1.462,1.057,0.443,0.781,0.741,���쐼,4.8,��
2019/03/23,14:00,0.778,1.152,0.786,1.462,1.059,0.442,0.781,0.741,��,6.5,��
2019/03/23,14:10,0.780,1.150,0.788,1.462,1.058,0.445,0.782,0.742,��,4.6,��
2019/03/23,14:20,0.780,1.153,0.788,1.462,1.059,0.444,0.782,0.741,�k�k��,3.4,��
2019/03/23,14:30,0.780,1.152,0.787,1.461,1.056,0.442,0.782,0.743,�k�k��,1.7,��
2019/03/23,14:40,0.779,1.152,0.786,1.464,1.057,0.442,0.780,0.741,�k��,0.8,��
2019/03/23,14:50,0.779,1.153,0.788,1.459,1.057,0.444,0.781,0.743,�k,1.7,��
2019/03/23,15:00,0.776,1.153,0.789,1.464,1.058,0.443,0.781,0.741,�k�k��,3.8,��
2019/03/23,15:10,0.778,1.153,0.789,1.463,1.058,0.443,0.780,0.742,�k��,4.8,��
2019/03/23,15:20,0.779,1.150,0.786,1.462,1.057,0.444,0.782,0.740,���k��,7.4,��
2019/03/23,15:30,0.777,1.149,0.788,1.463,1.056,0.444,0.781,0.740,���k��,6.1,��
2019/03/23,15:40,0.779,1.151,0.789,1.466,1.057,0.443,0.782,0.741,�k��,5.3,��
2019/03/23,15:50,0.779,1.154,0.788,1.462,1.059,0.443,0.783,0.742,���k��,8.4,��
2019/03/23,16:00,0.777,1.151,0.789,1.460,1.059,0.444,0.783,0.742,���k��,9.2,��
2019/03/23,16:10,0.779,1.152,0.788,1.464,1.056,0.441,0.783,0.741,���k��,7.4,��
2019/03/23,16:20,0.777,1.151,0.787,1.460,1.055,0.443,0.781,0.741,���k��,7.6,��
2019/03/23,16:30,0.777,1.150,0.789,1.462,1.056,0.441,0.778,0.743,���k��,6.6,��
2019/03/23,16:40,0.776,1.150,0.788,1.465,1.054,0.442,0.779,0.742,���k��,5.8,��
2019/03/23,16:50,0.776,1.151,0.787,1.463,1.055,0.441,0.781,0.740,��,6.1,��
2019/03/23,17:00,0.777,1.148,0.786,1.464,1.056,0.441,0.781,0.739,��,5.0,�L
2019/03/23,17:10,0.780,1.152,0.787,1.462,1.057,0.442,0.781,0.740,�k��,3.9,�L
2019/03/23,17:20,0.778,1.149,0.786,1.460,1.057,0.442,0.781,0.740,�k�k��,4.6,�L
2019/03/23,17:30,0.778,1.152,0.788,1.464,1.058,0.442,0.783,0.740,�k�k��,3.8,��
2019/03/23,17:40,0.779,1.150,0.788,1.464,1.058,0.442,0.782,0.741,�k�k��,4.2,��
2019/03/23,17:50,0.778,1.150,0.787,1.461,1.057,0.441,0.781,0.742,�k�k��,7.0,��
2019/03/23,18:00,0.780,1.150,0.786,1.460,1.057,0.442,0.782,0.739,�k��,7.5,��
2019/03/23,18:10,0.779,1.149,0.789,1.463,1.059,0.443,0.783,0.739,�k��,7.6,��
2019/03/23,18:20,0.776,1.149,0.787,1.460,1.056,0.442,0.782,0.741,�k��,8.2,��
2019/03/23,18:30,0.778,1.150,0.786,1.461,1.055,0.441,0.782,0.741,�k��,6.9,��
2019/03/23,18:40,0.779,1.150,0.786,1.461,1.057,0.441,0.782,0.742,�k��,8.6,��
2019/03/23,18:50,0.775,1.149,0.787,1.461,1.056,0.440,0.782,0.740,�k��,6.3,��
2019/03/23,19:00,0.776,1.151,0.787,1.459,1.057,0.441,0.782,0.740,�k��,5.9,��
2019/03/23,19:10,0.777,1.148,0.786,1.465,1.057,0.442,0.783,0.738,�k�k��,6.3,��
2019/03/23,19:20,0.777,1.147,0.787,1.461,1.055,0.441,0.783,0.739,�k�k��,6.5,��
2019/03/23,19:30,0.778,1.152,0.785,1.460,1.056,0.441,0.783,0.739,�k�k��,5.8,��
2019/03/23,19:40,0.777,1.150,0.787,1.462,1.056,0.441,0.784,0.740,�k��,5.3,��
2019/03/23,19:50,0.775,1.152,0.785,1.462,1.057,0.442,0.783,0.741,�k��,4.9,��
2019/03/23,20:00,0.775,1.149,0.787,1.464,1.055,0.440,0.781,0.741,�k�k��,4.6,��
2019/03/23,20:10,0.776,1.150,0.784,1.463,1.055,0.440,0.783,0.740,�k�k��,2.5,��
2019/03/23,20:20,0.777,1.150,0.788,1.461,1.054,0.441,0.780,0.740,�k��,4.0,��
2019/03/23,20:30,0.776,1.150,0.786,1.460,1.056,0.439,0.780,0.740,�k��,4.3,��
2019/03/23,20:40,0.776,1.148,0.787,1.461,1.055,0.441,0.782,0.739,�k�k��,5.5,��
2019/03/23,20:50,0.776,1.148,0.787,1.462,1.057,0.441,0.783,0.741,�k��,7.3,��
2019/03/23,21:00,0.777,1.151,0.784,1.462,1.057,0.438,0.783,0.738,�k��,7.6,��
2019/03/23,21:10,0.777,1.151,0.785,1.463,1.055,0.440,0.782,0.741,�k��,8.2,��
2019/03/23,21:20,0.776,1.148,0.785,1.462,1.055,0.440,0.782,0.739,�k��,9.4,��
2019/03/23,21:30,0.776,1.151,0.785,1.463,1.058,0.440,0.782,0.740,�k��,9.1,��
2019/03/23,21:40,0.776,1.149,0.786,1.462,1.055,0.439,0.783,0.740,�k��,9.1,��
2019/03/23,21:50,0.775,1.151,0.786,1.462,1.057,0.438,0.782,0.741,�k��,8.9,��
2019/03/23,22:00,0.776,1.150,0.786,1.461,1.055,0.439,0.782,0.740,�k��,9.3,��
2019/03/23,22:10,0.776,1.150,0.783,1.460,1.054,0.439,0.783,0.740,�k��,9.7,��
2019/03/23,22:20,0.776,1.150,0.785,1.460,1.056,0.437,0.782,0.739,�k��,8.5,��
2019/03/23,22:30,0.774,1.150,0.785,1.462,1.055,0.438,0.783,0.740,�k��,9.2,��
2019/03/23,22:40,0.775,1.149,0.786,1.463,1.054,0.438,0.783,0.741,�k��,9.2,��
2019/03/23,22:50,0.778,1.150,0.786,1.459,1.056,0.438,0.783,0.741,�k��,6.8,��
2019/03/23,23:00,0.774,1.150,0.786,1.462,1.054,0.440,0.782,0.741,�k��,6.9,��
2019/03/23,23:10,0.777,1.149,0.785,1.463,1.054,0.439,0.782,0.741,�k�k��,8.0,��
2019/03/23,23:20,0.776,1.151,0.787,1.466,1.054,0.441,0.783,0.741,�k�k��,8.2,��
2019/03/23,23:30,0.777,1.150,0.786,1.462,1.055,0.441,0.782,0.741,�k�k��,8.1,��
2019/03/23,23:40,0.776,1.151,0.787,1.461,1.056,0.440,0.783,0.741,�k��,8.1,��
2019/03/23,23:50,0.779,1.149,0.785,1.465,1.055,0.439,0.782,0.742,�k��,8.1,��
